This is the latest recevied weather packets stored in our database for station/object WA1OUI. If no packets are shown the sender has not sent any weather packets the latest 10 day(s).
| Time | Temp. | Humidity | Pressure | Rain* | Wind** | Luminosity | Snow |
|---|---|---|---|---|---|---|---|
| 1777405810 | 21.67° C | 31% | 1016.4 hPa | 0 mm | - | 255 W/m² | - |
| 1777405506 | 21.67° C | 32% | 1016.8 hPa | 0 mm | - | 467 W/m² | - |
| 1777405204 | 21.67° C | 32% | 1016.8 hPa | 0 mm | - | 235 W/m² | - |
| 1777404901 | 21.67° C | 32% | 1016.9 hPa | 0 mm | - | 285 W/m² | - |
| 1777404598 | 21.67° C | 32% | 1016.8 hPa | 0 mm | - | 212 W/m² | - |
| 1777404295 | 21.67° C | 31% | 1016.9 hPa | 0 mm | - | 491 W/m² | - |
| 1777403991 | 21.67° C | 33% | 1016.9 hPa | 0 mm | - | 548 W/m² | - |
| 1777403686 | 21.67° C | 32% | 1017.1 hPa | 0 mm | - | 522 W/m² | - |
| 1777403384 | 21.67° C | 31% | 1017.3 hPa | 0 mm | - | 358 W/m² | - |
| 1777403079 | 21.67° C | 35% | 1017.3 hPa | 0 mm | - | 569 W/m² | - |
| 1777402775 | 21.67° C | 32% | 1017 hPa | 0 mm | - | 579 W/m² | - |
| 1777402472 | 21.67° C | 32% | 1017.3 hPa | 0 mm | - | 571 W/m² | - |
| 1777402169 | 21.67° C | 34% | 1017.3 hPa | 0 mm | - | 496 W/m² | - |
| 1777401864 | 21.67° C | 32% | 1017.2 hPa | 0 mm | - | 524 W/m² | - |
| 1777401564 | 21.11° C | 35% | 1017.3 hPa | 0 mm | - | 481 W/m² | - |
| 1777401260 | 21.11° C | 36% | 1017.6 hPa | 0 mm | - | 436 W/m² | - |
| 1777400955 | 21.11° C | 31% | 1017.7 hPa | 0 mm | - | 441 W/m² | - |
| 1777400651 | 21.11° C | 33% | 1017.7 hPa | 0 mm | - | 479 W/m² | - |
| 1777400350 | 21.11° C | 34% | 1017.8 hPa | 0 mm | - | 513 W/m² | - |
| 1777400044 | 20.56° C | 34% | 1017.7 hPa | 0 mm | - | 415 W/m² | - |
| 1777399742 | 20.56° C | 33% | 1018 hPa | 0 mm | - | 386 W/m² | - |
| 1777399439 | 20.56° C | 34% | 1017.9 hPa | 0 mm | - | 430 W/m² | - |
| 1777399137 | 20.56° C | 34% | 1018 hPa | 0 mm | - | 424 W/m² | - |
| 1777398833 | 20.56° C | 34% | 1018.2 hPa | 0 mm | - | 495 W/m² | - |
| 1777398531 | 20.56° C | 34% | 1018.1 hPa | 0 mm | - | 556 W/m² | - |
* Rain latest hour (hover to see other rain measurements)
** Current wind speed in m/s (hover to see current wind gust speed)